APSTAR 6C

Last updated on Thu Mar 14 2024 00:02:40 GMT+0000 (Coordinated Universal Time)

1 43450U 18041A 24073.54959010 -.00000329 00000+0 00000+0 0 9992 2 43450 0.0351 269.5922 0001908 42.5224 191.3478 1.00268253 21541
UTC large
Height (km)
Speed (km/s)
/
Latitude / Longitude
Inclination (degrees)
Orbital Period (minutes)
Azimuth
Elevation
Range (km)
Doppler Factor

Next 0 passes for location: London (51.5072 / 0.1276)

Sorry there are no passes over London.